Location: Waco, TX
(31.5480°N, 97.1670°W)
Time: 00:37:59
(UTC-06:00)

ISS - Pass Details

Date: 10 December 2017
Orbit: 403 x 407 km, 51.6° (Epoch: 12 December)

Event Time Altitude Azimuth Distance (km) Brightness Sun altitude
Rises 21:25:47 0° 305° (NW) 2,320 - -50.2°
Reaches altitude 10° 21:27:59 10° 295° (WNW) 1,457 - -50.7°
Maximum altitude 21:30:57 32° 230° (SW) 710 - -51.3°
Drops below altitude 10° 21:33:53 10° 165° (SSE) 1,447 - -52.0°
Sets 21:36:04 0° 155° (SSE) 2,301 - -52.4°
